This is the latest recevied weather packets stored in our database for station/object WC4PEM-9. If no packets are shown the sender has not sent any weather packets the latest 10 day(s).
| Time | Temp. | Humidity | Pressure | Rain* | Wind** | Luminosity | Snow |
|---|---|---|---|---|---|---|---|
| 1777726902 | 23.33° C | 88% | 1010.3 hPa | 0 mm | - | - | - |
| 1777726718 | 23.33° C | 88% | 1010.3 hPa | 0 mm | - | - | - |
| 1777726418 | 22.78° C | 89% | 1010.4 hPa | 0 mm | - | - | - |
| 1777726118 | 22.78° C | 89% | 1010.3 hPa | 0 mm | - | - | - |
| 1777725818 | 22.78° C | 90% | 1010.3 hPa | 0 mm | - | - | - |
| 1777725518 | 22.78° C | 90% | 1010.1 hPa | 0 mm | - | - | - |
| 1777725218 | 22.78° C | 89% | 1010.1 hPa | 0 mm | - | - | - |
| 1777724918 | 22.78° C | 90% | 1010.1 hPa | 0 mm | - | - | - |
| 1777724618 | 22.78° C | 91% | 1010.1 hPa | 0 mm | - | - | - |
| 1777724318 | 22.22° C | 93% | 1010.1 hPa | 0 mm | - | - | - |
| 1777724018 | 22.22° C | 93% | 1010 hPa | 0 mm | - | - | - |
| 1777723718 | 22.22° C | 94% | 1010 hPa | 0 mm | - | - | - |
| 1777723418 | 21.67° C | 94% | 1009.8 hPa | 0 mm | - | - | - |
| 1777723118 | 21.67° C | 95% | 1009.7 hPa | 0 mm | - | - | - |
| 1777722818 | 21.11° C | 95% | 1009.9 hPa | 0 mm | - | - | - |
| 1777722801 | 21.11° C | 95% | 1009.8 hPa | 0 mm | - | - | - |
| 1777722518 | 21.11° C | 95% | 1009.8 hPa | 0 mm | - | - | - |
| 1777722218 | 21.11° C | 95% | 1010 hPa | 0 mm | - | - | - |
| 1777721918 | 20.56° C | 95% | 1010 hPa | 0 mm | - | - | - |
| 1777721618 | 20° C | 95% | 1010.2 hPa | 0 mm | - | - | - |
| 1777721318 | 20° C | 96% | 1009.9 hPa | 0 mm | - | - | - |
| 1777721188 | 18.89° C | 95% | 1009.8 hPa | 0 mm | - | - | - |
| 1777721018 | 19.44° C | 96% | 1009.7 hPa | 0 mm | - | - | - |
| 1777720953 | 18.89° C | 95% | 1009.8 hPa | 0 mm | - | - | - |
| 1777720718 | 18.89° C | 95% | 1009.8 hPa | 0 mm | - | - | - |
* Rain latest hour (hover to see other rain measurements)
** Current wind speed in m/s (hover to see current wind gust speed)